20040401,000002,777592,32.086440,-122.483320,NaN,16.344,33.086,42.076,820.41,0.0, NaN,15.451,15.425, NaN,24.198,   NaN,13.38,1015.55,66.69,13.17,39.3,34.9,17.7,16.1,348.2,344.5,15.4,13.5,NaN, NaN,NaN,287.8,NaN,1080777604,NaN,NaN,7.3,000003,   NaN,300.9,32.086380,-122.483210,-0.48,NaN,NaN,16.348, NaN,NaN,NaN, NaN, NaN
20040401,000032,777622,32.086770,-122.484420,NaN,16.427,33.035,42.096,771.18,0.0, NaN,15.452,15.429, NaN,24.140,   NaN,13.14,1015.45,67.15,13.11,41.4,37.7,17.5,14.9,350.1,348.1,15.4,12.7,NaN, NaN,NaN,247.1,NaN,1080777634,NaN,NaN,10.3,000033,   NaN,295.3,32.086720,-122.484330,-0.71,NaN,NaN,16.431, NaN,NaN,NaN, NaN, NaN
20040401,000102,777651,32.087170,-122.485530,NaN,16.450,33.084,42.174,700.83,0.0, NaN,15.449,15.428, NaN,24.172,   NaN,12.22,1015.27,69.21,12.65,42.7,38.8,17.0,13.9,352.0,350.5,15.0,11.7,NaN, NaN,NaN,271.3,NaN,1080777664,NaN,NaN,6.8,000063,   NaN,295.6,32.087110,-122.485420,-0.56,NaN,NaN,16.454, NaN,NaN,NaN, NaN, NaN
20040401,000132,777682,32.087510,-122.486600,NaN,16.469,32.966,42.057,688.40,0.0, NaN,15.451,15.427, NaN,24.077,   NaN,12.23,1015.27,70.59,12.38,46.7,42.7,17.0,13.0,356.3,356.0,15.1,11.0,NaN, NaN,NaN,302.8,NaN,1080777694,NaN,NaN,7.4,000093,   NaN,300.0,32.087450,-122.486520,-1.28,NaN,NaN,16.473, NaN,NaN,NaN, NaN, NaN
20040401,000202,777712,32.087930,-122.487810,NaN,16.520,33.063,42.216,689.25,0.0, NaN,15.453,15.429, NaN,24.139,   NaN,12.45,1015.28,72.00,12.35,45.8,42.1,17.0,13.5,355.8,355.3,15.0,11.4,NaN, NaN,NaN,278.7,NaN,1080777724,NaN,NaN,10.6,000123,   NaN,298.2,32.087870,-122.487720,-0.55,NaN,NaN,16.524, NaN,NaN,NaN, NaN, NaN
20040401,000232,777742,32.088340,-122.489050,NaN,16.239,33.088,41.979,695.53,0.0, NaN,15.454,15.432, NaN,24.223,   NaN,12.65,1015.43,72.01,12.42,43.6,39.5,16.5,14.2,355.1,352.8,14.3,11.8,NaN, NaN,NaN,276.8,NaN,1080777754,NaN,NaN,7.1,000153,   NaN,299.9,32.088280,-122.488950,-0.52,NaN,NaN,16.243, NaN,NaN,NaN, NaN, NaN
20040401,000303,777773,32.088780,-122.490280,NaN,16.213,33.091,41.957,717.83,0.0, NaN,15.452,15.429, NaN,24.231,   NaN,12.75,1015.33,71.58,12.43,42.7,38.9,16.8,14.4,353.9,351.9,14.5,12.0,NaN, NaN,NaN,275.8,NaN,1080777785,NaN,NaN,9.0,000184,   NaN,295.7,32.088720,-122.490140,-0.06,NaN,NaN,16.217, NaN,NaN,NaN, NaN, NaN
20040401,000332,777802,32.089160,-122.491420,NaN,16.247,33.064,41.959,679.07,0.0, NaN,15.449,15.424, NaN,24.203,   NaN,14.33,1015.38,70.58,12.43,43.3,40.9,16.7,13.9,354.3,354.4,14.5,11.6,NaN, NaN,NaN,266.3,NaN,1080777814,NaN,NaN,7.4,000213,   NaN,298.0,32.089100,-122.491340,-0.84,NaN,NaN,16.251, NaN,NaN,NaN, NaN, NaN
20040401,000402,777831,32.089610,-122.492650,NaN,16.247,33.083,41.980,626.30,0.0, NaN,15.449,15.415, NaN,24.217,   NaN,14.30,1015.62,71.36,12.45,43.3,40.4,16.4,14.0,354.5,353.5,14.2,11.6,NaN, NaN,NaN,300.5,NaN,1080777844,NaN,NaN,7.7,000243,   NaN,295.2,32.089560,-122.492560,-0.26,NaN,NaN,16.251, NaN,NaN,NaN, NaN, NaN
20040401,000433,777863,32.090050,-122.493990,NaN,16.267,33.079,41.995,605.57,0.0, NaN,15.451,15.414, NaN,24.210,   NaN,14.29,1015.52,71.92,12.55,42.9,39.2,16.4,13.9,354.5,353.0,14.0,11.4,NaN, NaN,NaN,325.4,NaN,1080777875,NaN,NaN,7.0,000274,   NaN,300.9,32.090000,-122.493900,-0.39,NaN,NaN,16.271, NaN,NaN,NaN, NaN, NaN
20040401,000502,777892,32.090450,-122.495180,NaN,16.300,33.082,42.029,593.91,0.0, NaN,15.449,15.416, NaN,24.205,   NaN,14.30,1015.30,71.57,12.63,42.3,38.1,16.8,14.4,353.6,351.1,14.3,11.8,NaN, NaN,NaN,301.3,NaN,1080777904,NaN,NaN,8.5,000303,   NaN,298.6,32.090400,-122.495080,-0.32,NaN,NaN,16.304, NaN,NaN,NaN, NaN, NaN
20040401,000533,777923,32.090900,-122.496430,NaN,16.253,33.092,41.996,591.93,0.0, NaN,15.448,15.412, NaN,24.223,   NaN,14.18,1015.32,69.51,12.62,41.5,38.0,16.9,14.5,352.2,350.3,14.4,11.9,NaN, NaN,NaN,279.8,NaN,1080777935,NaN,NaN,8.4,000334,   NaN,297.9,32.090850,-122.496360,-0.55,NaN,NaN,16.257, NaN,NaN,NaN, NaN, NaN
20040401,000603,777953,32.091330,-122.497690,NaN,16.314,33.092,42.054,585.22,0.0, NaN,15.450,15.419, NaN,24.209,   NaN,14.22,1015.36,69.22,12.64,41.8,39.1,16.9,14.3,352.6,352.0,14.4,11.7,NaN, NaN,NaN,323.3,NaN,1080777965,NaN,NaN,8.6,000364,   NaN,299.2,32.091270,-122.497600,-0.28,NaN,NaN,16.318, NaN,NaN,NaN, NaN, NaN
20040401,000632,777982,32.091740,-122.498890,NaN,16.361,33.090,42.096,572.53,0.0, NaN,15.449,15.422, NaN,24.197,   NaN,14.51,1015.41,71.69,12.83,42.7,39.7,16.4,13.7,354.3,353.8,14.0,11.3,NaN, NaN,NaN,288.1,NaN,1080777994,NaN,NaN,9.4,000393,   NaN,296.2,32.091690,-122.498800,-0.50,NaN,NaN,16.365, NaN,NaN,NaN, NaN, NaN
20040401,000702,778012,32.091990,-122.500050,NaN,16.360,33.091,42.097,560.83,0.0, NaN,15.450,15.423, NaN,24.198,   NaN,14.52,1015.43,70.15,12.88,44.9,42.0,16.1,13.0,354.7,354.9,14.0,10.9,NaN, NaN,NaN,278.4,NaN,1080778024,NaN,NaN,7.0,000423,   NaN,298.4,32.091940,-122.499950,-1.23,NaN,NaN,16.364, NaN,NaN,NaN, NaN, NaN
20040401,000733,778043,32.092420,-122.501210,NaN,16.323,33.088,42.058,545.56,0.0, NaN,15.450,15.428, NaN,24.204,   NaN,14.49,1015.32,69.65,12.86,45.8,43.0,16.1,12.8,355.8,356.4,14.2,10.9,NaN, NaN,NaN,287.8,NaN,1080778055,NaN,NaN,10.0,000454,   NaN,298.6,32.092360,-122.501130,-0.45,NaN,NaN,16.327, NaN,NaN,NaN, NaN, NaN
20040401,000803,778072,32.092770,-122.502350,NaN,16.368,32.985,41.983,542.49,0.0, NaN,15.452,15.429, NaN,24.114,   NaN,14.50,1015.41,69.80,12.86,46.0,42.9,15.8,12.4,358.1,358.3,13.9,10.5,NaN, NaN,NaN,308.2,NaN,1080778085,NaN,NaN,8.8,000484,   NaN,299.9,32.092720,-122.502250,-0.42,NaN,NaN,16.372, NaN,NaN,NaN, NaN, NaN
20040401,000833,778103,32.093090,-122.503550,NaN,16.527,33.002,42.153,552.33,0.0, NaN,15.450,15.422, NaN,24.091,   NaN,14.51,1015.42,70.25,12.88,47.3,43.9,15.5,12.0,358.6,358.9,13.7,10.2,NaN, NaN,NaN,297.8,NaN,1080778115,NaN,NaN,9.0,000514,   NaN,299.3,32.093020,-122.503400,-0.35,NaN,NaN,16.531, NaN,NaN,NaN, NaN, NaN
20040401,000903,778133,32.093530,-122.504680,NaN,16.395,33.033,42.063,566.49,0.0, NaN,15.448,15.418, NaN,24.145,   NaN,14.52,1015.29,70.53,12.96,47.6,43.7,15.5,12.1,359.6,359.4,13.7,10.2,NaN, NaN,NaN,322.1,NaN,1080778145,NaN,NaN,3.4,000544,   NaN,298.5,32.093480,-122.504570,-0.70,NaN,NaN,16.399, NaN,NaN,NaN, NaN, NaN
20040401,000932,778161,32.093890,-122.505720,NaN,16.250,33.092,41.994,587.81,0.0, NaN,15.451,15.420, NaN,24.224,   NaN,14.50,1015.42,70.55,12.97,47.0,44.1,15.3,12.1,359.5,0.2,13.5,10.2,NaN, NaN,NaN,306.3,NaN,1080778174,NaN,NaN,8.5,000573,   NaN,299.2,32.093840,-122.505630,-0.53,NaN,NaN,16.254, NaN,NaN,NaN, NaN, NaN
20040401,001003,778193,32.094280,-122.506900,NaN,16.244,33.092,41.988,609.64,0.0, NaN,15.449,15.416, NaN,24.225,   NaN,14.54,1015.28,70.67,13.00,48.5,45.7,15.5,11.9,0.1,1.6,13.8,10.1,NaN, NaN,NaN,308.2,NaN,1080778205,NaN,NaN,4.9,000604,   NaN,299.1,32.094220,-122.506800,-0.69,NaN,NaN,16.248, NaN,NaN,NaN, NaN, NaN
20040401,001033,778223,32.094650,-122.508030,NaN,16.269,33.089,42.008,681.45,0.0, NaN,15.448,15.414, NaN,24.217,   NaN,14.43,1015.34,69.74,12.93,49.5,46.2,15.7,12.1,1.1,1.6,14.0,10.4,NaN, NaN,NaN,317.2,NaN,1080778235,NaN,NaN,8.1,000634,   NaN,299.3,32.094590,-122.507930,-0.92,NaN,NaN,16.273, NaN,NaN,NaN, NaN, NaN
20040401,001103,778253,32.095090,-122.509190,NaN,16.286,33.088,42.023,614.84,0.0, NaN,15.446,15.411, NaN,24.212,   NaN,14.42,1015.40,69.72,12.94,48.7,45.6,16.0,12.7,1.3,1.5,14.2,10.8,NaN, NaN,NaN,303.4,NaN,1080778265,NaN,NaN,7.0,000664,   NaN,300.2,32.095030,-122.509100,-0.50,NaN,NaN,16.290, NaN,NaN,NaN, NaN, NaN
20040401,001133,778283,32.095500,-122.510310,NaN,16.286,33.042,41.971,552.29,0.0, NaN,15.445,15.410, NaN,24.177,   NaN,14.40,1015.43,69.64,12.93,48.9,45.7,16.0,12.8,1.9,1.8,14.2,10.9,NaN, NaN,NaN,337.2,NaN,1080778295,NaN,NaN,8.6,000694,   NaN,301.3,32.095450,-122.510220,0.08,NaN,NaN,16.290, NaN,NaN,NaN, NaN, NaN
20040401,001203,778313,32.095920,-122.511490,NaN,16.338,33.090,42.074,517.56,0.0, NaN,15.447,15.410, NaN,24.202,   NaN,14.50,1015.43,71.19,12.99,47.8,44.5,15.4,12.6,1.9,1.5,13.5,10.7,NaN, NaN,NaN,307.1,NaN,1080778325,NaN,NaN,10.7,000724,   NaN,297.1,32.095880,-122.511380,-0.50,NaN,NaN,16.342, NaN,NaN,NaN, NaN, NaN
20040401,001233,778343,32.096330,-122.512600,NaN,16.606,33.081,42.318,513.64,0.0, NaN,15.447,15.410, NaN,24.134,   NaN,14.67,1015.50,72.19,13.07,45.5,42.3,15.0,12.9,358.6,357.4,12.9,10.9,NaN, NaN,NaN,287.6,NaN,1080778355,NaN,NaN,8.3,000754,   NaN,298.6,32.096270,-122.512500,-1.08,NaN,NaN,16.610, NaN,NaN,NaN, NaN, NaN
20040401,001303,778373,32.096760,-122.513760,NaN,16.649,33.042,42.313,548.20,0.0, NaN,15.447,15.410, NaN,24.094,   NaN,14.58,1015.45,70.97,13.07,42.1,39.6,15.9,14.0,354.3,353.1,13.7,11.7,NaN, NaN,NaN,288.0,NaN,1080778385,NaN,NaN,8.9,000784,   NaN,301.2,32.096700,-122.513670,-0.86,NaN,NaN,16.653, NaN,NaN,NaN, NaN, NaN
20040401,001333,778402,32.097290,-122.514970,NaN,16.327,32.996,41.957,606.40,0.0, NaN,15.446,15.410, NaN,24.133,   NaN,14.65,1015.58,72.50,13.10,39.2,36.6,16.3,14.5,352.2,350.9,13.8,11.8,NaN, NaN,NaN,293.4,NaN,1080778415,NaN,NaN,6.9,000814,   NaN,301.6,32.097230,-122.514890,-0.58,NaN,NaN,16.331, NaN,NaN,NaN, NaN, NaN
20040401,001403,778433,32.097710,-122.516170,NaN,16.471,33.074,42.181,614.21,0.0, NaN,15.447,15.410, NaN,24.159,   NaN,14.66,1015.39,71.24,13.13,36.6,33.6,16.7,15.4,349.6,347.2,14.0,12.5,NaN, NaN,NaN,327.5,NaN,1080778445,NaN,NaN,6.0,000844,   NaN,298.2,32.097670,-122.516060,0.14,NaN,NaN,16.475, NaN,NaN,NaN, NaN, NaN
20040401,001433,778463,32.098180,-122.517340,NaN,16.341,33.025,42.003,604.31,0.0, NaN,15.449,15.411, NaN,24.151,   NaN,14.51,1015.45,70.19,13.07,36.3,32.2,17.2,16.7,348.7,344.2,14.6,13.8,NaN, NaN,NaN,280.0,NaN,1080778475,NaN,NaN,7.8,000874,   NaN,304.3,32.098120,-122.517260,-1.11,NaN,NaN,16.345, NaN,NaN,NaN, NaN, NaN
20040401,001503,778493,32.098680,-122.518550,NaN,16.169,33.088,41.913,584.54,0.0, NaN,15.446,15.410, NaN,24.239,   NaN,14.46,1015.31,69.74,13.06,38.2,33.0,18.0,17.0,350.1,344.6,15.4,14.2,NaN, NaN,NaN,294.3,NaN,1080778505,NaN,NaN,8.3,000904,   NaN,300.8,32.098620,-122.518470,-0.28,NaN,NaN,16.173, NaN,NaN,NaN, NaN, NaN
20040401,001533,778523,32.099140,-122.519770,NaN,16.179,33.094,41.929,561.27,0.0, NaN,15.446,15.410, NaN,24.241,   NaN,14.41,1015.36,69.72,13.02,40.3,34.3,17.9,16.2,353.0,347.5,15.4,13.4,NaN, NaN,NaN,295.7,NaN,1080778535,NaN,NaN,6.1,000934,   NaN,301.4,32.099070,-122.519680,-0.49,NaN,NaN,16.183, NaN,NaN,NaN, NaN, NaN
20040401,001603,778553,32.099580,-122.520950,NaN,16.208,33.092,41.954,549.56,0.0, NaN,15.447,15.411, NaN,24.233,   NaN,14.48,1015.50,71.20,13.05,42.7,39.1,16.7,14.0,355.4,354.2,14.4,11.5,NaN, NaN,NaN,278.5,NaN,1080778565,NaN,NaN,10.8,000964,   NaN,298.6,32.099520,-122.520850,-0.36,NaN,NaN,16.212, NaN,NaN,NaN, NaN, NaN
20040401,001633,778582,32.099980,-122.522130,NaN,16.218,33.090,41.961,557.69,0.0, NaN,15.447,15.412, NaN,24.230,   NaN,14.59,1015.38,72.06,13.11,41.0,36.9,16.1,14.4,353.5,350.7,13.7,11.9,NaN, NaN,NaN,328.2,NaN,1080778595,NaN,NaN,5.7,000994,   NaN,302.2,32.099900,-122.522000,-0.43,NaN,NaN,16.222, NaN,NaN,NaN, NaN, NaN
20040401,001703,778613,32.100480,-122.523300,NaN,16.225,33.091,41.968,566.92,0.0, NaN,15.448,15.414, NaN,24.228,   NaN,14.45,1015.43,70.43,13.04,37.4,32.6,17.0,16.3,349.5,344.5,14.4,13.5,NaN, NaN,NaN,281.2,NaN,1080778625,NaN,NaN,9.2,001024,   NaN,300.9,32.100420,-122.523210,-0.89,NaN,NaN,16.229, NaN,NaN,NaN, NaN, NaN
20040401,001733,778643,32.100920,-122.524440,NaN,16.227,33.091,41.971,565.60,0.0, NaN,15.448,15.414, NaN,24.228,   NaN,14.45,1015.48,71.09,13.03,38.8,34.2,17.5,16.4,351.1,346.6,14.9,13.7,NaN, NaN,NaN,320.7,NaN,1080778655,NaN,NaN,9.4,001054,   NaN,302.8,32.100870,-122.524340,-0.38,NaN,NaN,16.231, NaN,NaN,NaN, NaN, NaN
20040401,001803,778673,32.101330,-122.525520,NaN,16.235,33.093,41.980,572.05,0.0, NaN,15.449,15.412, NaN,24.228,   NaN,14.42,1015.38,70.49,12.99,41.0,37.7,16.7,14.8,352.8,350.8,14.3,12.3,NaN, NaN,NaN,261.6,NaN,1080778684,NaN,NaN,11.1,001083,   NaN,296.2,32.101270,-122.525420,-0.16,NaN,NaN,16.239, NaN,NaN,NaN, NaN, NaN
20040401,001834,778704,32.101790,-122.526670,NaN,16.264,33.088,42.002,592.96,0.0, NaN,15.443,15.410, NaN,24.217,   NaN,14.46,1015.51,71.27,13.01,42.9,39.9,15.9,13.4,355.4,354.2,13.7,11.2,NaN, NaN,NaN,289.3,NaN,1080778715,NaN,NaN,8.1,001114,   NaN,299.9,32.101720,-122.526570,-0.49,NaN,NaN,16.268, NaN,NaN,NaN, NaN, NaN
20040401,001903,778733,32.102210,-122.527910,NaN,16.289,32.998,41.923,605.53,0.0, NaN,15.441,15.409, NaN,24.142,   NaN,14.52,1015.37,71.70,13.06,45.4,42.1,15.5,12.9,359.3,358.5,13.5,10.8,NaN, NaN,NaN,309.3,NaN,1080778745,NaN,NaN,6.0,001144,   NaN,301.7,32.102160,-122.527800,-0.58,NaN,NaN,16.293, NaN,NaN,NaN, NaN, NaN
20040401,001933,778763,32.102670,-122.529050,NaN,16.491,33.069,42.196,604.31,0.0, NaN,15.443,15.410, NaN,24.151,   NaN,14.51,1015.18,70.62,13.05,43.5,40.2,16.3,13.5,356.9,355.8,14.0,11.2,NaN, NaN,NaN,304.4,NaN,1080778774,NaN,NaN,8.1,001174,   NaN,298.1,32.102590,-122.528920,-1.49,NaN,NaN,16.495, NaN,NaN,NaN, NaN, NaN
20040401,002003,778793,32.103130,-122.530290,NaN,16.611,33.055,42.293,608.24,0.0, NaN,15.442,15.410, NaN,24.113,   NaN,14.43,1015.43,69.72,13.00,40.7,37.5,17.0,14.4,353.7,352.2,14.6,11.9,NaN, NaN,NaN,312.3,NaN,1080778805,NaN,NaN,6.8,001204,   NaN,302.4,32.103070,-122.530200,-0.55,NaN,NaN,16.615, NaN,NaN,NaN, NaN, NaN
20040401,002034,778823,32.103640,-122.531560,NaN,16.240,33.076,41.966,551.76,0.0, NaN,15.443,15.410, NaN,24.214,   NaN,14.50,1015.58,70.58,13.05,38.6,35.3,17.0,15.0,351.5,349.5,14.3,12.2,NaN, NaN,NaN,284.5,NaN,1080778835,NaN,NaN,8.6,001234,   NaN,300.3,32.103590,-122.531470,-0.55,NaN,NaN,16.244, NaN,NaN,NaN, NaN, NaN
20040401,002103,778853,32.104120,-122.532830,NaN,16.205,33.086,41.944,532.98,0.0, NaN,15.445,15.410, NaN,24.229,   NaN,14.66,1015.52,72.32,13.12,37.2,32.6,17.3,15.9,350.0,345.9,14.4,12.8,NaN, NaN,NaN,309.3,NaN,1080778865,NaN,NaN,7.4,001264,   NaN,302.4,32.104070,-122.532730,-0.39,NaN,NaN,16.209, NaN,NaN,NaN, NaN, NaN
20040401,002133,778883,32.104590,-122.534010,NaN,16.198,33.095,41.947,512.17,0.0, NaN,15.445,15.410, NaN,24.238,   NaN,14.56,1015.58,71.37,13.09,36.6,31.1,17.4,17.0,348.0,341.7,14.5,13.9,NaN, NaN,NaN,296.7,NaN,1080778895,NaN,NaN,8.9,001294,   NaN,302.1,32.104520,-122.533920,0.29,NaN,NaN,16.202, NaN,NaN,NaN, NaN, NaN
20040401,002203,778912,32.105110,-122.535150,NaN,16.185,33.095,41.936,490.65,0.0, NaN,15.443,15.410, NaN,24.241,   NaN,14.53,1015.70,71.73,13.06,34.5,28.7,17.3,17.7,346.0,338.7,14.3,14.5,NaN, NaN,NaN,327.6,NaN,1080778925,NaN,NaN,7.0,001324,   NaN,302.1,32.105060,-122.535050,-0.37,NaN,NaN,16.189, NaN,NaN,NaN, NaN, NaN
20040401,002233,778943,32.105570,-122.536350,NaN,16.203,33.095,41.953,478.92,0.0, NaN,15.442,15.410, NaN,24.237,   NaN,14.49,1015.59,71.31,13.04,35.1,29.2,16.4,16.7,346.9,339.5,13.6,13.5,NaN, NaN,NaN,287.4,NaN,1080778955,NaN,NaN,9.8,001354,   NaN,297.6,32.105510,-122.536250,0.46,NaN,NaN,16.207, NaN,NaN,NaN, NaN, NaN
20040401,002303,778973,32.105930,-122.537470,NaN,16.242,33.094,41.988,472.47,0.0, NaN,15.439,15.409, NaN,24.227,   NaN,14.44,1015.63,70.92,13.00,35.1,30.5,16.2,16.1,346.1,340.7,13.6,13.2,NaN, NaN,NaN,271.2,NaN,1080778985,NaN,NaN,9.7,001384,   NaN,298.6,32.105870,-122.537380,-0.84,NaN,NaN,16.246, NaN,NaN,NaN, NaN, NaN
20040401,002333,779003,32.106390,-122.538530,NaN,16.233,33.091,41.976,474.80,0.0, NaN,15.441,15.410, NaN,24.227,   NaN,14.46,1015.78,71.29,13.00,35.2,31.2,15.5,15.2,346.7,342.2,13.1,12.5,NaN, NaN,NaN,288.8,NaN,1080779015,NaN,NaN,6.7,001414,   NaN,302.4,32.106310,-122.538450,NaN,NaN,NaN,16.237, NaN,NaN,NaN, NaN, NaN
20040401,002403,779033,32.106860,-122.539640,NaN,16.224,33.091,41.968,497.73,0.0, NaN,15.444,15.410, NaN,24.229,   NaN,14.68,1015.74,73.02,13.10,35.2,29.6,15.4,15.3,347.7,341.1,12.9,12.5,NaN, NaN,NaN,317.2,NaN,1080779045,NaN,NaN,8.5,001444,   NaN,302.2,32.106790,-122.539560,-0.78,NaN,NaN,16.228, NaN,NaN,NaN, NaN, NaN
20040401,002433,779063,32.107320,-122.540790,NaN,16.416,33.027,42.076,541.99,0.0, NaN,15.446,15.410, NaN,24.135,   NaN,14.57,1015.65,71.57,13.06,35.5,29.8,15.8,15.4,347.4,341.0,13.1,12.4,NaN, NaN,NaN,289.3,NaN,1080779075,NaN,NaN,4.7,001474,   NaN,297.6,32.107260,-122.540700,-0.58,NaN,NaN,16.420, NaN,NaN,NaN, NaN, NaN
20040401,002503,779092,32.107690,-122.541860,NaN,16.448,33.078,42.165,572.99,0.0, NaN,15.449,15.414, NaN,24.167,   NaN,14.63,1015.68,72.37,13.05,38.3,33.8,15.8,14.3,349.5,345.8,13.3,11.7,NaN, NaN,NaN,316.9,NaN,1080779105,NaN,NaN,4.0,001504,   NaN,303.8,32.107620,-122.541760,NaN,NaN,NaN,16.452, NaN,NaN,NaN, NaN, NaN
20040401,002533,779123,32.108090,-122.542920,NaN,16.278,33.034,41.954,573.48,0.0, NaN,15.449,15.415, NaN,24.172,   NaN,14.58,1015.52,71.05,13.03,40.1,34.8,16.1,14.5,351.5,347.3,13.9,12.1,NaN, NaN,NaN,303.9,NaN,1080779135,NaN,NaN,8.5,001534,   NaN,298.0,32.108030,-122.542800,-0.20,NaN,NaN,16.282, NaN,NaN,NaN, NaN, NaN
20040401,002603,779153,32.108530,-122.544000,NaN,16.201,33.047,41.897,566.66,0.0, NaN,15.448,15.414, NaN,24.201,   NaN,14.51,1015.59,71.20,13.01,37.8,33.0,16.6,15.6,348.8,344.2,14.3,13.0,NaN, NaN,NaN,272.0,NaN,1080779165,NaN,NaN,10.1,001564,   NaN,302.3,32.108460,-122.543920,-0.74,NaN,NaN,16.205, NaN,NaN,NaN, NaN, NaN
20040401,002633,779183,32.109000,-122.545140,NaN,16.209,33.092,41.955,588.41,0.0, NaN,15.447,15.411, NaN,24.233,   NaN,14.60,1015.47,71.10,13.04,38.0,33.9,16.5,15.8,349.2,345.1,14.1,13.2,NaN, NaN,NaN,263.9,NaN,1080779195,NaN,NaN,12.3,001594,   NaN,299.8,32.108920,-122.545060,-0.85,NaN,NaN,16.213, NaN,NaN,NaN, NaN, NaN
20040401,002704,779214,32.109450,-122.546370,NaN,16.273,33.074,41.995,645.14,0.0, NaN,15.442,15.410, NaN,24.204,   NaN,14.47,1015.56,69.58,12.96,38.1,33.4,16.8,16.5,350.2,344.7,14.2,13.7,NaN, NaN,NaN,308.0,NaN,1080779225,NaN,NaN,11.3,001624,   NaN,298.6,32.109390,-122.546260,0.16,NaN,NaN,16.277, NaN,NaN,NaN, NaN, NaN
20040401,002734,779244,32.109970,-122.547600,NaN,16.164,33.095,41.916,727.91,0.0, NaN,15.436,15.410, NaN,24.246,   NaN,14.57,1015.68,70.50,13.02,37.4,33.2,16.9,16.2,349.5,344.8,14.1,13.2,NaN, NaN,NaN,297.0,NaN,1080779255,NaN,NaN,8.6,001654,   NaN,301.3,32.109900,-122.547510,-0.27,NaN,NaN,16.168, NaN,NaN,NaN, NaN, NaN
20040401,002804,779274,32.110430,-122.548850,NaN,16.169,33.093,41.918,676.31,0.0, NaN,15.433,15.408, NaN,24.243,   NaN,14.67,1015.54,70.54,13.05,36.2,31.8,17.3,16.7,347.9,342.9,14.4,13.5,NaN, NaN,NaN,326.1,NaN,1080779285,NaN,NaN,6.4,001684,   NaN,303.8,32.110370,-122.548750,-0.31,NaN,NaN,16.173, NaN,NaN,NaN, NaN, NaN
20040401,002834,779304,32.110940,-122.549930,NaN,16.173,33.097,41.927,608.47,0.0, NaN,15.430,15.406, NaN,24.245,   NaN,14.61,1015.44,69.61,13.02,36.4,31.4,18.0,17.3,347.7,342.0,15.1,14.3,NaN, NaN,NaN,297.3,NaN,1080779315,NaN,NaN,9.3,001714,   NaN,300.9,32.110860,-122.549840,-2.12,NaN,NaN,16.177, NaN,NaN,NaN, NaN, NaN
20040401,002904,779333,32.111340,-122.551110,NaN,16.187,33.095,41.938,576.01,0.0, NaN,15.431,15.406, NaN,24.240,   NaN,14.62,1015.69,69.73,13.04,36.9,32.0,17.6,17.0,348.1,342.8,15.0,14.2,NaN, NaN,NaN,298.3,NaN,1080779345,NaN,NaN,6.6,001744,   NaN,301.2,32.111270,-122.551000,-0.22,NaN,NaN,16.191, NaN,NaN,NaN, NaN, NaN
20040401,002934,779364,32.111780,-122.552180,NaN,16.217,33.092,41.963,550.75,0.0, NaN,15.440,15.408, NaN,24.231,   NaN,14.63,1015.62,69.16,13.03,34.3,29.9,17.3,17.3,344.1,339.0,14.6,14.4,NaN, NaN,NaN,296.5,NaN,1080779375,NaN,NaN,5.6,001774,   NaN,299.9,32.111700,-122.552100,0.10,NaN,NaN,16.221, NaN,NaN,NaN, NaN, NaN
20040401,003004,779394,32.112230,-122.553250,NaN,16.264,33.049,41.958,544.78,0.0, NaN,15.446,15.410, NaN,24.188,   NaN,14.57,1015.76,68.67,13.00,30.6,26.4,17.3,18.0,340.6,335.1,14.5,15.0,NaN, NaN,NaN,267.4,NaN,1080779405,NaN,NaN,10.0,001804,   NaN,300.9,32.112150,-122.553170,-0.56,NaN,NaN,16.268, NaN,NaN,NaN, NaN, NaN
20040401,003034,779424,32.112670,-122.554400,NaN,16.247,33.055,41.949,562.58,0.0, NaN,15.450,15.410, NaN,24.196,   NaN,14.73,1015.50,69.95,13.08,30.3,25.3,17.7,18.4,339.0,332.5,14.8,15.3,NaN, NaN,NaN,288.6,NaN,1080779435,NaN,NaN,6.9,001834,   NaN,298.8,32.112600,-122.554310,-1.16,NaN,NaN,16.251, NaN,NaN,NaN, NaN, NaN
20040401,003103,779453,32.113110,-122.555590,NaN,16.240,33.005,41.885,602.14,0.0, NaN,15.449,15.416, NaN,24.159,   NaN,14.74,1015.30,68.86,13.07,32.5,26.4,18.3,18.5,341.5,334.2,15.5,15.4,NaN, NaN,NaN,296.2,NaN,1080779465,NaN,NaN,8.8,001864,   NaN,301.1,32.113030,-122.555500,-0.79,NaN,NaN,16.244, NaN,NaN,NaN, NaN, NaN
20040401,003133,779483,32.113610,-122.556710,NaN,16.525,33.020,42.172,653.50,0.0, NaN,15.451,15.423, NaN,24.106,   NaN,14.78,1015.41,69.95,13.10,35.9,31.8,17.8,16.7,346.9,343.3,15.1,13.7,NaN, NaN,NaN,263.7,NaN,1080779495,NaN,NaN,10.5,001894,   NaN,298.6,32.113530,-122.556630,-0.63,NaN,NaN,16.529, NaN,NaN,NaN, NaN, NaN
20040401,003203,779513,32.114040,-122.557810,NaN,16.238,33.088,41.978,682.27,0.0, NaN,15.451,15.427, NaN,24.224,   NaN,14.72,1015.45,68.60,13.10,38.5,36.0,17.2,15.3,350.1,348.9,14.7,12.7,NaN, NaN,NaN,304.5,NaN,1080779525,NaN,NaN,6.1,001924,   NaN,301.9,32.113970,-122.557720,-0.41,NaN,NaN,16.242, NaN,NaN,NaN, NaN, NaN
20040401,003233,779543,32.114520,-122.558930,NaN,16.214,33.097,41.966,727.78,0.0, NaN,15.449,15.424, NaN,24.236,   NaN,14.71,1015.33,68.09,13.10,40.2,37.2,17.5,15.8,351.2,349.2,15.1,13.2,NaN, NaN,NaN,311.4,NaN,1080779555,NaN,NaN,10.1,001954,   NaN,300.4,32.114440,-122.558850,-0.13,NaN,NaN,16.218, NaN,NaN,NaN, NaN, NaN
20040401,003303,779573,32.114840,-122.560060,NaN,16.231,33.098,41.982,808.88,0.0, NaN,15.449,15.425, NaN,24.233,   NaN,14.84,1015.47,69.87,13.15,41.7,38.3,16.5,15.0,353.1,350.8,14.3,12.7,NaN, NaN,NaN,294.4,NaN,1080779585,NaN,NaN,4.9,001984,   NaN,302.7,32.114770,-122.559970,NaN,NaN,NaN,16.235, NaN,NaN,NaN, NaN, NaN
20040401,003333,779603,32.115280,-122.561080,NaN,16.269,33.096,42.016,1508.74,0.0, NaN,15.453,15.430, NaN,24.222,   NaN,14.96,1015.41,69.75,13.24,41.8,38.5,16.4,14.3,353.1,351.4,14.3,12.1,NaN, NaN,NaN,284.9,NaN,1080779615,NaN,NaN,7.8,002014,   NaN,298.7,32.115210,-122.561000,NaN,NaN,NaN,16.273, NaN,NaN,NaN, NaN, NaN
20040401,003403,779633,32.115650,-122.562210,NaN,16.257,33.085,41.992,1650.72,0.0, NaN,15.458,15.436, NaN,24.217,   NaN,14.83,1015.60,67.34,13.18,39.6,36.0,16.9,15.2,351.4,348.7,14.6,12.8,NaN, NaN,NaN,286.0,NaN,1080779645,NaN,NaN,7.0,002044,   NaN,300.4,32.115580,-122.562100,NaN,NaN,NaN,16.261, NaN,NaN,NaN, NaN, NaN
20040401,003433,779663,32.115960,-122.563110,NaN,16.237,33.098,41.988,1926.79,0.0, NaN,15.465,15.441, NaN,24.231,   NaN,14.90,1015.48,68.36,13.21,41.0,36.8,16.6,14.9,351.2,347.8,14.6,12.7,NaN, NaN,NaN,317.4,NaN,1080779675,NaN,NaN,5.6,002074,   NaN,301.7,32.115890,-122.563040,NaN,NaN,NaN,16.241, NaN,NaN,NaN, NaN, NaN
20040401,003504,779694,32.116420,-122.564210,NaN,16.416,33.000,42.045,1575.73,0.0, NaN,15.468,15.441, NaN,24.115,   NaN,14.91,1015.42,67.14,13.20,41.1,36.7,16.8,15.2,351.9,348.0,14.8,13.0,NaN, NaN,NaN,289.5,NaN,1080779705,NaN,NaN,9.8,002104,   NaN,303.3,32.116350,-122.564130,-0.54,NaN,NaN,16.420, NaN,NaN,NaN, NaN, NaN
20040401,003534,779724,32.116930,-122.565340,NaN,16.418,33.073,42.132,682.82,0.0, NaN,15.469,15.442, NaN,24.171,   NaN,14.87,1015.50,67.72,13.21,39.2,35.3,17.3,15.3,351.2,348.1,14.8,12.7,NaN, NaN,NaN,323.9,NaN,1080779735,NaN,NaN,5.2,002134,   NaN,299.0,32.116870,-122.565250,-0.39,NaN,NaN,16.422, NaN,NaN,NaN, NaN, NaN
20040401,003603,779752,32.117390,-122.566460,NaN,16.287,33.085,42.021,587.59,0.0, NaN,15.470,15.443, NaN,24.210,   NaN,14.83,1015.45,67.68,13.21,38.8,34.8,17.0,15.1,351.2,347.9,14.4,12.4,NaN, NaN,NaN,288.2,NaN,1080779765,NaN,NaN,10.7,002164,   NaN,301.8,32.117310,-122.566370,-0.66,NaN,NaN,16.291, NaN,NaN,NaN, NaN, NaN
20040401,003633,779783,32.117770,-122.567600,NaN,16.252,33.093,41.997,958.22,0.0, NaN,15.460,15.437, NaN,24.224,   NaN,14.67,1015.43,66.25,13.12,39.3,35.4,17.4,15.4,350.3,347.3,15.0,12.8,NaN, NaN,NaN,302.6,NaN,1080779795,NaN,NaN,2.3,002194,   NaN,299.2,32.117690,-122.567520,-0.74,NaN,NaN,16.256, NaN,NaN,NaN, NaN, NaN
20040401,003703,779813,32.118110,-122.568590,NaN,16.244,33.097,41.993,1298.24,0.0, NaN,15.457,15.436, NaN,24.229,   NaN,14.68,1015.58,66.95,13.10,39.8,35.0,17.6,16.0,350.4,346.1,15.4,13.6,NaN, NaN,NaN,293.2,NaN,1080779825,NaN,NaN,7.2,002224,   NaN,300.9,32.118030,-122.568490,NaN,NaN,NaN,16.248, NaN,NaN,NaN, NaN, NaN